Flag for Germany Weather past 2 weeks in Kamp-Lintfort, North Rhine-Westphalia, Germany

Now
63 °F

Partly sunny.


Feels Like: 63 °F
Forecast: 51 / 62 °F
Wind: 5 mph from South

Location: Duesseldorf

Current Time: May 27, 2015 at 8:35:49 PM

Latest Report: May 27, 2015 at 8:00 PM


Visibility: 25 mi

Pressure: 30.12 "Hg

Humidity: 44%

Dew point: 41 °F

Location of Kamp-LintfortLocation

Historic Weather in Kamp-Lintfort — Graph

°F

Kamp-Lintfort temperature yesterday

Maximum temperature yesterday: 58 °F (at 6:00 PM)
Minimum temperature yesterday: 49 °F (at 7:00 AM)
Average temperature yesterday: 54 °F

Past Weeks' High & Low Weather Summary

 TemperatureHumidityPressure
High69 °F (May 18, 3:00 PM)99% (May 17, 2:00 AM)30.34 "Hg (May 17, 2:00 AM)
Low38 °F (May 21, 4:00 AM)36% (May 13, 4:00 PM)29.65 "Hg (May 18, 8:00 PM)
Average55 °F66%30.08 "Hg
* Reported May 12 7:00 PM — May 27 7:00 PM, Kamp-Lintfort, Weather by CustomWeather, © 2015

Note: Actual official high and low records may vary slightly from our data, if they occured in-between our weather recording intervals... More about our weather records

Advertising

Kamp-Lintfort weather history for previous 24 hours

 ConditionsComfort  
Time TempWeatherWind HumidityBarometerVisibility
7:00 PM
Wed, May 27
63 °FScattered clouds.5 mph41%30.14 "Hg25 mi
6:00 PM65 °FPartly sunny.2 mph39%30.16 "Hg25 mi
4:00 PM62 °FOvercast.3 mph44%30.20 "Hg25 mi
3:00 PM62 °FOvercast.3 mph42%30.22 "Hg25 mi
2:00 PM62 °FPassing clouds.101 mph44%30.24 "Hg3 mi
1:00 PM60 °FPartly sunny.2 mph44%30.25 "Hg31 mi
12:00 PM58 °FOvercast.3 mph50%30.27 "Hg31 mi
10:00 AM57 °FScattered clouds.2 mph47%30.27 "Hg31 mi
9:00 AM55 °FPartly sunny.2 mph63%30.27 "Hg31 mi
8:00 AM52 °FPartly sunny.2 mph72%30.27 "Hg31 mi
7:00 AM51 °FOvercast.1 mph73%30.26 "Hg31 mi
6:00 AM50 °FOvercast.1 mph74%30.27 "Hg31 mi
5:00 AM48 °FOvercast.1 mph85%30.27 "Hg31 mi
4:00 AM48 °FOvercast.1 mph82%30.27 "Hg28 mi
3:00 AM47 °FOvercast.1 mph86%30.26 "Hg28 mi
2:00 AM51 °FOvercast.2 mph71%30.26 "Hg28 mi
1:00 AM50 °FOvercast.2 mph72%30.26 "Hg28 mi
12:00 AM49 °FPassing clouds.2 mph74%30.25 "Hg28 mi
11:00 PM
Tue, May 26
50 °FPassing clouds.3 mph70%30.24 "Hg28 mi
10:00 PM51 °FPassing clouds.3 mph69%30.23 "Hg28 mi
9:00 PM54 °FPartly sunny.3 mph59%30.22 "Hg31 mi
8:00 PM55 °FPartly sunny.5 mph55%30.20 "Hg31 mi
Weather by CustomWeather, © 2015

See weather overviewHow to use our weather pages